User: anonymous   Login
Location: Trois-Rivi�res
(46.3500°N, 72.5500°W)
Time: 05:18:27
(UTC-05:00)
Language:

Cosmos 1544 - Orbit

View from above orbital plane
View from above orbital plane
View from above satellite
View from above satellite

Ground track
Ground track

The orbit data is extracted from the following two-line orbital elements,

1 14819U 84027A   17054.75125249  .00001935  00000-0  74874-4 0  9998
2 14819  82.4863 141.7508 0016126  81.4627 278.8438 15.25458860798510
Epoch (UTC): 23 February 2017 18:01:48
Eccentricity: 0.0016126
inclination: 82.4863°
perigee height: 478 km
apogee height: 500 km
right ascension of ascending node: 141.7508°
argument of perigee: 81.4627°
revolutions per day: 15.25458860
mean anomaly at epoch: 278.8438°
orbit number at epoch: 79851

The dashed part of the orbit path shows where the satellite is in the earth's shadow,  

DLR